owner,sensor,date,latitude,longitude,vertical_datum,direction_of_sea_water_velocity,sea_water_speed,upward_sea_water_velocity,qcFlag 
TABS,ioos:station:wmo:42044:1,2003-05-01T00:00:00Z,26.1914,-97.0507,2.0,41.05407514,16.33754265,-99999.0,'11111222,11111222,99999999' 
TABS,ioos:station:wmo:42044:1,2003-05-01T00:30:00Z,26.1914,-97.0507,2.0,42.81026102,18.3203739,-99999.0,'11111222,11111222,99999999' 
TABS,ioos:station:wmo:42044:1,2003-05-01T01:00:00Z,26.1914,-97.0507,2.0,40.55759843,18.44017896,-99999.0,'11111222,11111222,99999999' 
TABS,ioos:station:wmo:42044:1,2003-05-01T01:30:00Z,26.1914,-97.0507,2.0,37.48555391,16.3829454,-99999.0,'11111222,11111222,99999999' 
TABS,ioos:station:wmo:42044:1,2003-05-01T02:00:00Z,26.1914,-97.0507,2.0,40.52065525,15.39123127,-99999.0,'11111222,11111222,99999999' 
TABS,ioos:station:wmo:42044:1,2003-05-01T02:30:00Z,26.1914,-97.0507,2.0,29.36449218,14.19360772,-99999.0,'11111222,11111222,99999999' 
TABS,ioos:station:wmo:42044:1,2003-05-01T03:00:00Z,26.1914,-97.0507,2.0,18.19158901,16.36809702,-99999.0,'11111222,11111222,99999999' 
TABS,ioos:station:wmo:42044:1,2003-05-01T03:30:00Z,26.1914,-97.0507,2.0,25.1692519,15.23661708,-99999.0,'11111222,11111222,99999999' 
TABS,ioos:station:wmo:42044:1,2003-05-01T04:00:00Z,26.1914,-97.0507,2.0,19.6856541,12.17134339,-99999.0,'11111222,11111222,99999999' 
TABS,ioos:station:wmo:42044:1,2003-05-01T04:30:00Z,26.1914,-97.0507,2.0,2.195773329,12.5291979,-99999.0,'11111222,11111222,99999999' 
TABS,ioos:station:wmo:42044:1,2003-05-01T05:00:00Z,26.1914,-97.0507,2.0,7.104159115,13.50366247,-99999.0,'11111222,11111222,99999999' 
TABS,ioos:station:wmo:42044:1,2003-05-01T05:30:00Z,26.1914,-97.0507,2.0,1.189568569,11.56249108,-99999.0,'11111222,11111222,99999999' 
TABS,ioos:station:wmo:42044:1,2003-05-01T06:00:00Z,26.1914,-97.0507,2.0,356.4238844,12.18372685,-99999.0,'11111222,11111222,99999999' 
TABS,ioos:station:wmo:42044:1,2003-05-01T06:30:00Z,26.1914,-97.0507,2.0,2.577568228,14.4546221,-99999.0,'11111222,11111222,99999999' 
TABS,ioos:station:wmo:42044:1,2003-05-01T07:00:00Z,26.1914,-97.0507,2.0,357.4565189,11.49132281,-99999.0,'11111222,11111222,99999999' 
TABS,ioos:station:wmo:42044:1,2003-05-01T07:30:00Z,26.1914,-97.0507,2.0,28.98545137,9.637105375,-99999.0,'11133222,11111222,99999999' 
TABS,ioos:station:wmo:42044:1,2003-05-01T08:00:00Z,26.1914,-97.0507,2.0,15.39402359,4.708938309,-99999.0,'11133222,11111222,99999999' 
TABS,ioos:station:wmo:42044:1,2003-05-01T08:30:00Z,26.1914,-97.0507,2.0,37.25406738,4.774107246,-99999.0,'11133222,11111222,99999999' 
TABS,ioos:station:wmo:42044:1,2003-05-01T09:00:00Z,26.1914,-97.0507,2.0,61.06876849,2.707951255,-99999.0,'11133222,11111222,99999999' 
TABS,ioos:station:wmo:42044:1,2003-05-01T09:30:00Z,26.1914,-97.0507,2.0,49.17720243,2.524004754,-99999.0,'11133222,11111222,99999999' 
TABS,ioos:station:wmo:42044:1,2003-05-01T10:00:00Z,26.1914,-97.0507,2.0,98.21919003,3.637361681,-99999.0,'11133222,11111222,99999999' 
TABS,ioos:station:wmo:42044:1,2003-05-01T10:30:00Z,26.1914,-97.0507,2.0,81.16013949,6.507295905,-99999.0,'11133222,11111222,99999999' 
TABS,ioos:station:wmo:42044:1,2003-05-01T11:00:00Z,26.1914,-97.0507,2.0,97.80016964,6.631357327,-99999.0,'11133222,11111222,99999999' 
TABS,ioos:station:wmo:42044:1,2003-05-01T11:30:00Z,26.1914,-97.0507,2.0,101.3563243,7.262182867,-99999.0,'11133222,11111222,99999999' 
TABS,ioos:station:wmo:42044:1,2003-05-01T12:00:00Z,26.1914,-97.0507,2.0,98.72014088,8.376831143,-99999.0,'11133222,11111222,99999999' 
TABS,ioos:station:wmo:42044:1,2003-05-01T12:30:00Z,26.1914,-97.0507,2.0,97.0752639,7.144403404,-99999.0,'11133222,11111222,99999999' 
TABS,ioos:station:wmo:42044:1,2003-05-01T13:00:00Z,26.1914,-97.0507,2.0,91.65031836,8.333456666,-99999.0,'11133222,11111222,99999999' 
TABS,ioos:station:wmo:42044:1,2003-05-01T13:30:00Z,26.1914,-97.0507,2.0,80.20666798,7.11366291,-99999.0,'11133222,11111222,99999999' 
TABS,ioos:station:wmo:42044:1,2003-05-01T14:00:00Z,26.1914,-97.0507,2.0,106.6822655,9.719063741,-99999.0,'11133222,11111222,99999999' 
TABS,ioos:station:wmo:42044:1,2003-05-01T14:30:00Z,26.1914,-97.0507,2.0,107.8134294,10.78716367,-99999.0,'11111222,11111222,99999999' 
TABS,ioos:station:wmo:42044:1,2003-05-01T15:00:00Z,26.1914,-97.0507,2.0,115.4561795,10.39966346,-99999.0,'11111222,11111222,99999999' 
TABS,ioos:station:wmo:42044:1,2003-05-01T15:30:00Z,26.1914,-97.0507,2.0,113.1754052,9.757381821,-99999.0,'11133222,11111222,99999999' 
TABS,ioos:station:wmo:42044:1,2003-05-01T16:00:00Z,26.1914,-97.0507,2.0,113.9624329,10.63676643,-99999.0,'11111222,11111222,99999999' 
TABS,ioos:station:wmo:42044:1,2003-05-01T16:30:00Z,26.1914,-97.0507,2.0,123.413341,10.91385358,-99999.0,'11111222,11111222,99999999' 
TABS,ioos:station:wmo:42044:1,2003-05-01T17:00:00Z,26.1914,-97.0507,2.0,115.9389949,8.595958353,-99999.0,'11133222,11111222,99999999' 
TABS,ioos:station:wmo:42044:1,2003-05-01T17:30:00Z,26.1914,-97.0507,2.0,110.5929668,9.069520384,-99999.0,'11133222,11111222,99999999' 
TABS,ioos:station:wmo:42044:1,2003-05-01T18:00:00Z,26.1914,-97.0507,2.0,123.9963796,12.44765038,-99999.0,'11111222,11111222,99999999' 
TABS,ioos:station:wmo:42044:1,2003-05-01T18:30:00Z,26.1914,-97.0507,2.0,123.5705981,13.31006011,-99999.0,'11111222,11111222,99999999' 
TABS,ioos:station:wmo:42044:1,2003-05-01T19:00:00Z,26.1914,-97.0507,2.0,115.5357266,13.94189729,-99999.0,'11111222,11111222,99999999' 
TABS,ioos:station:wmo:42044:1,2003-05-01T19:30:00Z,26.1914,-97.0507,2.0,114.9824379,14.08812976,-99999.0,'11111222,11111222,99999999' 
TABS,ioos:station:wmo:42044:1,2003-05-01T20:00:00Z,26.1914,-97.0507,2.0,117.8077782,12.99013857,-99999.0,'11111222,11111222,99999999' 
TABS,ioos:station:wmo:42044:1,2003-05-01T20:30:00Z,26.1914,-97.0507,2.0,127.4518373,14.37274156,-99999.0,'11111222,11111222,99999999' 
TABS,ioos:station:wmo:42044:1,2003-05-01T21:00:00Z,26.1914,-97.0507,2.0,123.4093801,12.45871582,-99999.0,'11111222,11111222,99999999' 
TABS,ioos:station:wmo:42044:1,2003-05-01T21:30:00Z,26.1914,-97.0507,2.0,131.5267676,12.48923136,-99999.0,'11111222,11111222,99999999' 
TABS,ioos:station:wmo:42044:1,2003-05-01T22:00:00Z,26.1914,-97.0507,2.0,139.2201688,11.14594097,-99999.0,'11111222,11111222,99999999' 
TABS,ioos:station:wmo:42044:1,2003-05-01T22:30:00Z,26.1914,-97.0507,2.0,133.2529377,10.90158245,-99999.0,'11111222,11111222,99999999' 
TABS,ioos:station:wmo:42044:1,2003-05-01T23:00:00Z,26.1914,-97.0507,2.0,134.5150349,10.02713319,-99999.0,'11111222,11111222,99999999' 
TABS,ioos:station:wmo:42044:1,2003-05-01T23:30:00Z,26.1914,-97.0507,2.0,143.9440022,8.868895083,-99999.0,'11133222,11111222,99999999' 
TABS,ioos:station:wmo:42044:1,2003-05-02T00:00:00Z,26.1914,-97.0507,2.0,153.1542855,10.9613366,-99999.0,'11111222,11111222,99999999' 
TABS,ioos:station:wmo:42044:1,2003-05-02T00:30:00Z,26.1914,-97.0507,2.0,170.3198662,7.790924207,-99999.0,'11133222,11111222,99999999' 
TABS,ioos:station:wmo:42044:1,2003-05-02T01:00:00Z,26.1914,-97.0507,2.0,180.1946719,8.82005102,-99999.0,'11133222,11111222,99999999' 
TABS,ioos:station:wmo:42044:1,2003-05-02T01:30:00Z,26.1914,-97.0507,2.0,182.8927354,10.30313059,-99999.0,'11111222,11111222,99999999' 
TABS,ioos:station:wmo:42044:1,2003-05-02T02:00:00Z,26.1914,-97.0507,2.0,201.2369127,11.12554718,-99999.0,'11111222,11111222,99999999' 
TABS,ioos:station:wmo:42044:1,2003-05-02T02:30:00Z,26.1914,-97.0507,2.0,200.9555173,13.08551871,-99999.0,'11111222,11111222,99999999' 
TABS,ioos:station:wmo:42044:1,2003-05-02T03:00:00Z,26.1914,-97.0507,2.0,205.9999103,15.87685422,-99999.0,'11111222,11111222,99999999' 
TABS,ioos:station:wmo:42044:1,2003-05-02T03:30:00Z,26.1914,-97.0507,2.0,200.4648717,14.01452461,-99999.0,'11111222,11111222,99999999' 
TABS,ioos:station:wmo:42044:1,2003-05-02T04:00:00Z,26.1914,-97.0507,2.0,209.6789706,14.07671126,-99999.0,'11111222,11111222,99999999' 
TABS,ioos:station:wmo:42044:1,2003-05-02T04:30:00Z,26.1914,-97.0507,2.0,213.4389615,14.57211378,-99999.0,'11111222,11111222,99999999' 
TABS,ioos:station:wmo:42044:1,2003-05-02T05:00:00Z,26.1914,-97.0507,2.0,214.5672995,14.48769478,-99999.0,'11111222,11111222,99999999' 
TABS,ioos:station:wmo:42044:1,2003-05-02T05:30:00Z,26.1914,-97.0507,2.0,201.8889686,14.5381051,-99999.0,'11111222,11111222,99999999' 
TABS,ioos:station:wmo:42044:1,2003-05-02T06:00:00Z,26.1914,-97.0507,2.0,213.9516662,10.92216096,-99999.0,'11111222,11111222,99999999' 
TABS,ioos:station:wmo:42044:1,2003-05-02T06:30:00Z,26.1914,-97.0507,2.0,223.0452501,9.53734764,-99999.0,'11133222,11111222,99999999' 
TABS,ioos:station:wmo:42044:1,2003-05-02T07:00:00Z,26.1914,-97.0507,2.0,217.8147006,9.215253659,-99999.0,'11133222,11111222,99999999' 
TABS,ioos:station:wmo:42044:1,2003-05-02T07:30:00Z,26.1914,-97.0507,2.0,192.9131684,11.63424256,-99999.0,'11111222,11111222,99999999' 
TABS,ioos:station:wmo:42044:1,2003-05-02T08:00:00Z,26.1914,-97.0507,2.0,190.1416804,8.177780873,-99999.0,'11133222,11111222,99999999' 
TABS,ioos:station:wmo:42044:1,2003-05-02T08:30:00Z,26.1914,-97.0507,2.0,199.7037884,6.139486949,-99999.0,'11133222,11111222,99999999' 
TABS,ioos:station:wmo:42044:1,2003-05-02T09:00:00Z,26.1914,-97.0507,2.0,189.9403393,4.923921202,-99999.0,'11133222,11111222,99999999' 
TABS,ioos:station:wmo:42044:1,2003-05-02T09:30:00Z,26.1914,-97.0507,2.0,222.9830652,4.018855558,-99999.0,'11133222,11111222,99999999' 
TABS,ioos:station:wmo:42044:1,2003-05-02T10:00:00Z,26.1914,-97.0507,2.0,240.2825067,5.123875486,-99999.0,'11133222,11111222,99999999' 
TABS,ioos:station:wmo:42044:1,2003-05-02T10:30:00Z,26.1914,-97.0507,2.0,239.6916105,4.795414476,-99999.0,'11133222,11111222,99999999' 
TABS,ioos:station:wmo:42044:1,2003-05-02T11:00:00Z,26.1914,-97.0507,2.0,244.7616649,5.792969877,-99999.0,'11133222,11111222,99999999' 
TABS,ioos:station:wmo:42044:1,2003-05-02T11:30:00Z,26.1914,-97.0507,2.0,271.0362516,7.191175147,-99999.0,'11133222,11111222,99999999' 
TABS,ioos:station:wmo:42044:1,2003-05-02T12:00:00Z,26.1914,-97.0507,2.0,256.6693454,5.11789019,-99999.0,'11133222,11111222,99999999' 
TABS,ioos:station:wmo:42044:1,2003-05-02T12:30:00Z,26.1914,-97.0507,2.0,271.6394575,6.642717817,-99999.0,'11133222,11111222,99999999' 
TABS,ioos:station:wmo:42044:1,2003-05-02T13:00:00Z,26.1914,-97.0507,2.0,274.6092972,5.226901568,-99999.0,'11133222,11111222,99999999' 
TABS,ioos:station:wmo:42044:1,2003-05-02T13:30:00Z,26.1914,-97.0507,2.0,263.2710827,5.377034499,-99999.0,'11133222,11111222,99999999' 
TABS,ioos:station:wmo:42044:1,2003-05-02T14:00:00Z,26.1914,-97.0507,2.0,255.9463263,8.154048074,-99999.0,'11133222,11111222,99999999' 
TABS,ioos:station:wmo:42044:1,2003-05-02T14:30:00Z,26.1914,-97.0507,2.0,258.8236977,3.353595086,-99999.0,'11133222,11111222,99999999' 
TABS,ioos:station:wmo:42044:1,2003-05-02T15:00:00Z,26.1914,-97.0507,2.0,279.7966079,4.231701785,-99999.0,'11133222,11111222,99999999' 
TABS,ioos:station:wmo:42044:1,2003-05-02T15:30:00Z,26.1914,-97.0507,2.0,252.4419233,2.685088453,-99999.0,'11133222,11111222,99999999' 
TABS,ioos:station:wmo:42044:1,2003-05-02T16:00:00Z,26.1914,-97.0507,2.0,236.1324792,1.794463708,-99999.0,'11133222,11111222,99999999' 
TABS,ioos:station:wmo:42044:1,2003-05-02T16:30:00Z,26.1914,-97.0507,2.0,234.7995101,1.578670327,-99999.0,'11133222,11111222,99999999' 
TABS,ioos:station:wmo:42044:1,2003-05-02T17:00:00Z,26.1914,-97.0507,2.0,271.3156511,3.921033027,-99999.0,'11133222,11111222,99999999' 
TABS,ioos:station:wmo:42044:1,2003-05-02T17:30:00Z,26.1914,-97.0507,2.0,291.8519068,2.122498528,-99999.0,'11133222,11111222,99999999' 
TABS,ioos:station:wmo:42044:1,2003-05-02T18:00:00Z,26.1914,-97.0507,2.0,200.0369529,0.904765163,-99999.0,'11133222,11111222,99999999' 
TABS,ioos:station:wmo:42044:1,2003-05-02T18:30:00Z,26.1914,-97.0507,2.0,207.8969953,2.308246087,-99999.0,'11133222,11111222,99999999' 
TABS,ioos:station:wmo:42044:1,2003-05-02T19:00:00Z,26.1914,-97.0507,2.0,181.6681231,1.030436801,-99999.0,'11133222,11111222,99999999' 
TABS,ioos:station:wmo:42044:1,2003-05-02T19:30:00Z,26.1914,-97.0507,2.0,174.9866875,1.71656634,-99999.0,'11133222,11111222,99999999' 
TABS,ioos:station:wmo:42044:1,2003-05-02T20:00:00Z,26.1914,-97.0507,2.0,248.6673658,1.814304274,-99999.0,'11133222,11111222,99999999' 
TABS,ioos:station:wmo:42044:1,2003-05-02T20:30:00Z,26.1914,-97.0507,2.0,285.1243929,1.91637679,-99999.0,'11133222,11111222,99999999' 
TABS,ioos:station:wmo:42044:1,2003-05-02T21:00:00Z,26.1914,-97.0507,2.0,264.3934262,1.637833935,-99999.0,'11133222,11111222,99999999' 
TABS,ioos:station:wmo:42044:1,2003-05-02T21:30:00Z,26.1914,-97.0507,2.0,164.6496889,1.057733426,-99999.0,'11133222,11111222,99999999' 
TABS,ioos:station:wmo:42044:1,2003-05-02T22:00:00Z,26.1914,-97.0507,2.0,195.0181151,2.971497939,-99999.0,'11133222,11111222,99999999' 
TABS,ioos:station:wmo:42044:1,2003-05-02T22:30:00Z,26.1914,-97.0507,2.0,191.5507698,2.796640842,-99999.0,'11133222,11111222,99999999' 
TABS,ioos:station:wmo:42044:1,2003-05-02T23:00:00Z,26.1914,-97.0507,2.0,226.8252224,3.551478565,-99999.0,'11133222,11111222,99999999' 
TABS,ioos:station:wmo:42044:1,2003-05-02T23:30:00Z,26.1914,-97.0507,2.0,234.096691,4.740675057,-99999.0,'11133222,11111222,99999999' 
TABS,ioos:station:wmo:42044:1,2003-05-03T00:00:00Z,26.1914,-97.0507,2.0,225.9090626,4.009800494,-99999.0,'11133222,11111222,99999999' 
TABS,ioos:station:wmo:42044:1,2003-05-03T00:30:00Z,26.1914,-97.0507,2.0,231.4040221,4.183897704,-99999.0,'11133222,11111222,99999999' 
TABS,ioos:station:wmo:42044:1,2003-05-03T01:00:00Z,26.1914,-97.0507,2.0,237.8721343,4.475321218,-99999.0,'11133222,11111222,99999999' 
TABS,ioos:station:wmo:42044:1,2003-05-03T01:30:00Z,26.1914,-97.0507,2.0,219.9200883,6.389053138,-99999.0,'11133222,11111222,99999999' 
TABS,ioos:station:wmo:42044:1,2003-05-03T02:00:00Z,26.1914,-97.0507,2.0,222.6949116,9.143216064,-99999.0,'11133222,11111222,99999999' 
TABS,ioos:station:wmo:42044:1,2003-05-03T02:30:00Z,26.1914,-97.0507,2.0,236.8043947,7.707846651,-99999.0,'11133222,11111222,99999999' 
TABS,ioos:station:wmo:42044:1,2003-05-03T03:00:00Z,26.1914,-97.0507,2.0,237.7154454,8.930587887,-99999.0,'11133222,11111222,99999999' 
TABS,ioos:station:wmo:42044:1,2003-05-03T03:30:00Z,26.1914,-97.0507,2.0,235.4627815,11.44748881,-99999.0,'11111222,11111222,99999999' 
TABS,ioos:station:wmo:42044:1,2003-05-03T04:00:00Z,26.1914,-97.0507,2.0,234.8221554,9.616194674,-99999.0,'11133222,11111222,99999999' 
TABS,ioos:station:wmo:42044:1,2003-05-03T04:30:00Z,26.1914,-97.0507,2.0,240.6346407,12.90857854,-99999.0,'11111222,11111222,99999999' 
TABS,ioos:station:wmo:42044:1,2003-05-03T05:00:00Z,26.1914,-97.0507,2.0,237.8680913,12.03312511,-99999.0,'11111222,11111222,99999999' 
TABS,ioos:station:wmo:42044:1,2003-05-03T05:30:00Z,26.1914,-97.0507,2.0,237.6368981,10.53658389,-99999.0,'11111222,11111222,99999999' 
TABS,ioos:station:wmo:42044:1,2003-05-03T06:00:00Z,26.1914,-97.0507,2.0,228.4798906,9.202287759,-99999.0,'11133222,11111222,99999999' 
TABS,ioos:station:wmo:42044:1,2003-05-03T06:30:00Z,26.1914,-97.0507,2.0,215.8426144,9.819577384,-99999.0,'11133222,11111222,99999999' 
TABS,ioos:station:wmo:42044:1,2003-05-03T07:00:00Z,26.1914,-97.0507,2.0,241.5193665,8.43021352,-99999.0,'11133222,11111222,99999999' 
TABS,ioos:station:wmo:42044:1,2003-05-03T07:30:00Z,26.1914,-97.0507,2.0,256.0332411,7.955174417,-99999.0,'11133222,11111222,99999999' 
TABS,ioos:station:wmo:42044:1,2003-05-03T08:00:00Z,26.1914,-97.0507,2.0,284.0366316,6.844355339,-99999.0,'11133222,11111222,99999999' 
TABS,ioos:station:wmo:42044:1,2003-05-03T08:30:00Z,26.1914,-97.0507,2.0,287.9264977,8.902162659,-99999.0,'11133222,11111222,99999999' 
TABS,ioos:station:wmo:42044:1,2003-05-03T09:00:00Z,26.1914,-97.0507,2.0,283.0909652,9.845862075,-99999.0,'11133222,11111222,99999999' 
TABS,ioos:station:wmo:42044:1,2003-05-03T09:30:00Z,26.1914,-97.0507,2.0,299.6270532,6.614786467,-99999.0,'11133222,11111222,99999999' 
TABS,ioos:station:wmo:42044:1,2003-05-03T10:00:00Z,26.1914,-97.0507,2.0,291.3630211,8.729793812,-99999.0,'11133222,11111222,99999999' 
TABS,ioos:station:wmo:42044:1,2003-05-03T10:30:00Z,26.1914,-97.0507,2.0,297.6227132,9.209695978,-99999.0,'11133222,11111222,99999999' 
TABS,ioos:station:wmo:42044:1,2003-05-03T11:00:00Z,26.1914,-97.0507,2.0,308.4276671,10.00769704,-99999.0,'11111222,11111222,99999999' 
TABS,ioos:station:wmo:42044:1,2003-05-03T11:30:00Z,26.1914,-97.0507,2.0,313.4955222,8.077945283,-99999.0,'11133222,11111222,99999999' 
TABS,ioos:station:wmo:42044:1,2003-05-03T12:00:00Z,26.1914,-97.0507,2.0,327.9949021,9.245301509,-99999.0,'11133222,11111222,99999999' 
TABS,ioos:station:wmo:42044:1,2003-05-03T12:30:00Z,26.1914,-97.0507,2.0,329.9050818,11.76615485,-99999.0,'11111222,11111222,99999999' 
TABS,ioos:station:wmo:42044:1,2003-05-03T13:00:00Z,26.1914,-97.0507,2.0,334.5599288,10.70835655,-99999.0,'11111222,11111222,99999999' 
TABS,ioos:station:wmo:42044:1,2003-05-03T13:30:00Z,26.1914,-97.0507,2.0,332.8916358,11.78460861,-99999.0,'11111222,11111222,99999999' 
TABS,ioos:station:wmo:42044:1,2003-05-03T14:00:00Z,26.1914,-97.0507,2.0,331.6599903,9.816577815,-99999.0,'11133222,11111222,99999999' 
TABS,ioos:station:wmo:42044:1,2003-05-03T14:30:00Z,26.1914,-97.0507,2.0,341.4836871,8.879684679,-99999.0,'11133222,11111222,99999999' 
TABS,ioos:station:wmo:42044:1,2003-05-03T15:00:00Z,26.1914,-97.0507,2.0,333.3749419,8.501535155,-99999.0,'11133222,11111222,99999999' 
TABS,ioos:station:wmo:42044:1,2003-05-03T15:30:00Z,26.1914,-97.0507,2.0,334.8353675,8.419073583,-99999.0,'11133222,11111222,99999999' 
TABS,ioos:station:wmo:42044:1,2003-05-03T16:00:00Z,26.1914,-97.0507,2.0,335.8211599,11.81668312,-99999.0,'11111222,11111222,99999999' 
TABS,ioos:station:wmo:42044:1,2003-05-03T16:30:00Z,26.1914,-97.0507,2.0,324.7015011,12.5467167,-99999.0,'11111222,11111222,99999999' 
TABS,ioos:station:wmo:42044:1,2003-05-03T17:00:00Z,26.1914,-97.0507,2.0,328.8101859,12.58980937,-99999.0,'11111222,11111222,99999999' 
TABS,ioos:station:wmo:42044:1,2003-05-03T17:30:00Z,26.1914,-97.0507,2.0,318.735613,15.738275,-99999.0,'11111222,11111222,99999999' 
TABS,ioos:station:wmo:42044:1,2003-05-03T18:00:00Z,26.1914,-97.0507,2.0,315.7211339,16.30010123,-99999.0,'11111222,11111222,99999999' 
TABS,ioos:station:wmo:42044:1,2003-05-03T18:30:00Z,26.1914,-97.0507,2.0,314.0770561,16.67574286,-99999.0,'11111222,11111222,99999999' 
TABS,ioos:station:wmo:42044:1,2003-05-03T19:00:00Z,26.1914,-97.0507,2.0,319.745962,16.83736618,-99999.0,'11111222,11111222,99999999' 
TABS,ioos:station:wmo:42044:1,2003-05-03T19:30:00Z,26.1914,-97.0507,2.0,316.7360162,16.80856924,-99999.0,'11111222,11111222,99999999' 
TABS,ioos:station:wmo:42044:1,2003-05-03T20:00:00Z,26.1914,-97.0507,2.0,326.7525761,16.52501135,-99999.0,'11111222,11111222,99999999' 
TABS,ioos:station:wmo:42044:1,2003-05-03T20:30:00Z,26.1914,-97.0507,2.0,330.9538993,13.53195477,-99999.0,'11111222,11111222,99999999' 
TABS,ioos:station:wmo:42044:1,2003-05-03T21:00:00Z,26.1914,-97.0507,2.0,331.8400175,15.74354788,-99999.0,'11111222,11111222,99999999' 
TABS,ioos:station:wmo:42044:1,2003-05-03T21:30:00Z,26.1914,-97.0507,2.0,334.0783635,14.34304361,-99999.0,'11111222,11111222,99999999' 
TABS,ioos:station:wmo:42044:1,2003-05-03T22:00:00Z,26.1914,-97.0507,2.0,350.9701916,10.89503098,-99999.0,'11111222,11111222,99999999' 
TABS,ioos:station:wmo:42044:1,2003-05-03T22:30:00Z,26.1914,-97.0507,2.0,345.5074705,10.34932365,-99999.0,'11111222,11111222,99999999' 
TABS,ioos:station:wmo:42044:1,2003-05-03T23:00:00Z,26.1914,-97.0507,2.0,345.1911871,9.350598911,-99999.0,'11133222,11111222,99999999' 
TABS,ioos:station:wmo:42044:1,2003-05-03T23:30:00Z,26.1914,-97.0507,2.0,347.2717468,8.714149413,-99999.0,'11133222,11111222,99999999' 
TABS,ioos:station:wmo:42044:1,2003-05-04T00:00:00Z,26.1914,-97.0507,2.0,344.4981206,9.765254733,-99999.0,'11133222,11111222,99999999' 
TABS,ioos:station:wmo:42044:1,2003-05-04T00:30:00Z,26.1914,-97.0507,2.0,329.4323449,7.944004028,-99999.0,'11133222,11111222,99999999' 
TABS,ioos:station:wmo:42044:1,2003-05-04T01:00:00Z,26.1914,-97.0507,2.0,316.4224577,7.122759297,-99999.0,'11133222,11111222,99999999' 
TABS,ioos:station:wmo:42044:1,2003-05-04T01:30:00Z,26.1914,-97.0507,2.0,313.8249232,7.92833526,-99999.0,'11133222,11111222,99999999' 
TABS,ioos:station:wmo:42044:1,2003-05-04T02:00:00Z,26.1914,-97.0507,2.0,301.3510943,9.648730486,-99999.0,'11133222,11111222,99999999' 
TABS,ioos:station:wmo:42044:1,2003-05-04T02:30:00Z,26.1914,-97.0507,2.0,309.3935836,8.540281026,-99999.0,'11133222,11111222,99999999' 
TABS,ioos:station:wmo:42044:1,2003-05-04T03:00:00Z,26.1914,-97.0507,2.0,299.161596,7.306024911,-99999.0,'11133222,11111222,99999999' 
TABS,ioos:station:wmo:42044:1,2003-05-04T03:30:00Z,26.1914,-97.0507,2.0,292.0173782,9.8697771,-99999.0,'11133222,11111222,99999999' 
TABS,ioos:station:wmo:42044:1,2003-05-04T04:00:00Z,26.1914,-97.0507,2.0,301.9084532,9.989434418,-99999.0,'11133222,11111222,99999999' 
TABS,ioos:station:wmo:42044:1,2003-05-04T04:30:00Z,26.1914,-97.0507,2.0,299.9304107,10.36191585,-99999.0,'11111222,11111222,99999999' 
TABS,ioos:station:wmo:42044:1,2003-05-04T05:00:00Z,26.1914,-97.0507,2.0,298.1434033,8.120006158,-99999.0,'11133222,11111222,99999999' 
TABS,ioos:station:wmo:42044:1,2003-05-04T05:30:00Z,26.1914,-97.0507,2.0,303.4914672,10.38405027,-99999.0,'11111222,11111222,99999999' 
TABS,ioos:station:wmo:42044:1,2003-05-04T06:00:00Z,26.1914,-97.0507,2.0,297.631159,12.74331982,-99999.0,'11111222,11111222,99999999' 
TABS,ioos:station:wmo:42044:1,2003-05-04T06:30:00Z,26.1914,-97.0507,2.0,302.5626384,12.54142735,-99999.0,'11111222,11111222,99999999' 
TABS,ioos:station:wmo:42044:1,2003-05-04T07:00:00Z,26.1914,-97.0507,2.0,308.1186081,12.39294154,-99999.0,'11111222,11111222,99999999' 
TABS,ioos:station:wmo:42044:1,2003-05-04T07:30:00Z,26.1914,-97.0507,2.0,308.0311515,9.673985735,-99999.0,'11133222,11111222,99999999' 
TABS,ioos:station:wmo:42044:1,2003-05-04T08:00:00Z,26.1914,-97.0507,2.0,312.2139528,10.90941337,-99999.0,'11111222,11111222,99999999' 
TABS,ioos:station:wmo:42044:1,2003-05-04T08:30:00Z,26.1914,-97.0507,2.0,302.026408,11.74795727,-99999.0,'11111222,11111222,99999999' 
TABS,ioos:station:wmo:42044:1,2003-05-04T09:00:00Z,26.1914,-97.0507,2.0,304.5033738,10.75117203,-99999.0,'11111222,11111222,99999999' 
TABS,ioos:station:wmo:42044:1,2003-05-04T09:30:00Z,26.1914,-97.0507,2.0,307.687574,11.77719831,-99999.0,'11111222,11111222,99999999' 
TABS,ioos:station:wmo:42044:1,2003-05-04T10:00:00Z,26.1914,-97.0507,2.0,323.5257449,11.30426911,-99999.0,'11111222,11111222,99999999' 
TABS,ioos:station:wmo:42044:1,2003-05-04T10:30:00Z,26.1914,-97.0507,2.0,324.4493988,10.07867055,-99999.0,'11111222,11111222,99999999' 
TABS,ioos:station:wmo:42044:1,2003-05-04T11:00:00Z,26.1914,-97.0507,2.0,321.4204362,11.19298441,-99999.0,'11111222,11111222,99999999' 
TABS,ioos:station:wmo:42044:1,2003-05-04T11:30:00Z,26.1914,-97.0507,2.0,324.0795268,8.693192739,-99999.0,'11133222,11111222,99999999' 
TABS,ioos:station:wmo:42044:1,2003-05-04T12:00:00Z,26.1914,-97.0507,2.0,336.2783763,10.63889092,-99999.0,'11111222,11111222,99999999' 
TABS,ioos:station:wmo:42044:1,2003-05-04T12:30:00Z,26.1914,-97.0507,2.0,331.6312305,9.660129399,-99999.0,'11133222,11111222,99999999' 
TABS,ioos:station:wmo:42044:1,2003-05-04T13:00:00Z,26.1914,-97.0507,2.0,347.6929639,13.74590121,-99999.0,'11111222,11111222,99999999' 
TABS,ioos:station:wmo:42044:1,2003-05-04T13:30:00Z,26.1914,-97.0507,2.0,350.1633437,13.57964653,-99999.0,'11111222,11111222,99999999' 
TABS,ioos:station:wmo:42044:1,2003-05-04T14:00:00Z,26.1914,-97.0507,2.0,353.7903988,13.58973878,-99999.0,'11111222,11111222,99999999' 
TABS,ioos:station:wmo:42044:1,2003-05-04T14:30:00Z,26.1914,-97.0507,2.0,350.0418831,15.38174567,-99999.0,'11111222,11111222,99999999' 
TABS,ioos:station:wmo:42044:1,2003-05-04T15:00:00Z,26.1914,-97.0507,2.0,349.6272675,16.55049244,-99999.0,'11111222,11111222,99999999' 
TABS,ioos:station:wmo:42044:1,2003-05-04T15:30:00Z,26.1914,-97.0507,2.0,349.8255982,16.5299516,-99999.0,'11111222,11111222,99999999' 
TABS,ioos:station:wmo:42044:1,2003-05-04T16:00:00Z,26.1914,-97.0507,2.0,31.74823721,22.42554124,-99999.0,'11111222,11111222,99999999' 